Aérodrome :
LOGIN :

S'inscrire | Disclaimer

   EN    FR    IT 

 










Légende :    VFR   VFR Marginal   IFR   IFR Intensif   IFR Très Intensif
Visi : 
Plafond : 
>= 8 km
>= 3000ft
5 à 8 km
1000 à 3000 ft
1500m à 5 km
500 à 1000 ft
800 à 1500m
200 à 500 ft
< 800m
< 200 ft
Symboles :   Orages  Brouillard  Fortes neiges  Fortes précipitations  Vent > 20 kt
SIGMETs :   Divers  Orages  Givrage  Turbulence  Onde Orograph.  Cendres Volcan.







- Altitude de l'aérodrome : 19 ft
- Code IATA : LCY
- Voir les cartes d'approche


EGLC - London City

DERNIER METAR :
  • 241220Z AUTO VRB03KT 9999 NCD 08/00 Q1012

METARs EXPIRÉS :
  • 241150Z AUTO VRB02KT 9999 NCD 08/01 Q1012
  • 241120Z AUTO VRB03KT 9999 NCD 08/01 Q1012
  • 241050Z AUTO 01005KT 340V050 9999 NCD 08/01 Q1012
  • 241020Z AUTO 33004KT 290V020 9999 NCD 08/02 Q1011
  • 240950Z AUTO VRB03KT 9999 NCD 08/02 Q1011

TAF TAF EGLC
Valide du 24 à 12h jusqu'au 24 à 21h UTC


241058Z 2412/2421 29005KT CAVOK
ATIS : +44 20 7646 0224
Pas de NOTAMs connus pour ce terrain.



MET'MAP, la Météo Aéronautique d'un coup d'oeil ! - Copyright ORBIFLY Décembre 2007 - Disclaimer

ORBIFLY MET'MAP TEAM :

Programmation & Développement : Alexandra Zaïnal
Conception & Développement : Baudouin d'Aumeries
Co-Programmation & Développement : Marc-Olivier Méhu
Soutien technique & logistique : Manuel Goepfert

Contact : metmap@orbifly.com




SOURCES & CREDITS :

   NOAA